Вернуться в каталог

STARLINK-35953

АктивенСвязьVLEO
NORAD 66637·PAYLOAD·🇺🇸 United States

Запущен Nov 23, 2025 с Vandenberg Space Force Base

Loading…

Ближайшие Пролёты (ближайшие 24 часа)

TLE

СвежийSource: CelesTrak SupGP

Эпоха: Sep 15, 2026, 03:19 UTC

1 66637C 25271W   26258.13868056  .00066088  00000+0  19519-2 0  2587
2 66637  53.1595 335.0890 0001112  88.3560 171.4964 15.34368282    16

Отслеживайте STARLINK-35953 в реальном времени с AllMySat

Download on the App Store